Current Weather Conditions by Major Hwy


I-84 West to East [Columbia River Gorge] 200 PM PST TUE NOV 21 2017 ELEVA CITY SKY/WX TMP DP RH WIND PRES REMARKS 10 ASTORIA, OR LGT RAIN 62 59 90 S30G41 29.83R 20 KELSO LGT RAIN 52 50 93 SE12G21 29.90F 40 PORTLAND, OR CLOUDY 51 47 86 SE15 29.94S 30 TROUTDALE, OR LGT RAIN 51 44 77 E17G25 29.95R 240 THE DALLES, OR CLOUDY 46 44 93 CALM 30.12F 620 HERMISTON, OR LGT RAIN 43 43 100 NE5 30.11F 1,480 PENDLETON, OR LGT RAIN 44 43 96 CALM 30.08F FOG 2,710 LA GRANDE LGT RAIN 50 46 86 S18 30.17F 3,370 BAKER CITY LGT RAIN 50 45 83 E12 30.20F 2,190 ONTARIO LGT RAIN 49 47 93 CALM 30.27S
I-90 West to East 200 PM PST TUE NOV 21 2017 ELEVA CITY SKY/WX TMP DP RH WIND PRES REMARKS 30 SEATAC AIRPORT LGT RAIN 52 50 93 SE10 29.82F 1,730 ELLENSBURG LGT RAIN 38 36 92 CALM 30.10S FOG 1,200 MOSES LAKE LGT RAIN 40 40 100 CALM 30.13F FOG 1,880 SPOKANE GEIGER LGT RAIN 39 39 100 E7 30.12F VSB 1/2
I-82 North West to South East 200 PM PST TUE NOV 21 2017 ELEVA CITY SKY/WX TMP DP RH WIND PRES REMARKS 1,730 ELLENSBURG LGT RAIN 38 36 92 CALM 30.10S FOG 1,050 YAKIMA TC LGT RAIN 39 37 93 NW3 30.08F 720 360 PASCO LGT RAIN 42 42 100 N5 30.16F 620 HERMISTON, OR LGT RAIN 43 43 100 NE5 30.11F
Hwy97 North to South 200 PM PST TUE NOV 21 2017 ELEVA CITY SKY/WX TMP DP RH WIND PRES REMARKS 850 OMAK CLOUDY 39 39 100 S3 30.12F 630 WENATCHEE LGT RAIN 37 37 100 CALM 30.12F 1,730 ELLENSBURG LGT RAIN 38 36 92 CALM 30.10S FOG 1,050 YAKIMA TC LGT RAIN 39 37 93 NW3 30.08F 1,640 GOLDENDALE* CLOUDY 46 44 93 CALM 30.12F *From Dallesport Airport Elev 240 3,080 REDMOND PTSUNNY 61 47 59 S9 30.07F 4,100 KLAMATH FALLS PTSUNNY 62 48 60 S13 30.16F
I-5 North to South 200 PM PST TUE NOV 21 2017 ELEVA CITY SKY/WX TMP DP RH WIND PRES REMARKS 150 BELLINGHAM LGT RAIN 45 44 97 N6 29.78F 100 ARLINGTON LGT RAIN 46 45 96 N3 29.83F 610 EVERETT LGT RAIN 52 51 97 E12G21 29.83F FOG 30 SEATAC AIRPORT LGT RAIN 52 50 93 SE10 29.82F 200 OLYMPIA LGT RAIN 45 45 100 SE5 29.83F FOG 20 KELSO LGT RAIN 52 50 93 SE12G21 29.90F 100 VANCOUVER CLOUDY 51 48 89 SE9 29.94F 40 PORTLAND CLOUDY 51 47 86 SE15 29.94S 200 SALEM CLOUDY 53 50 89 CALM 29.93F 360 EUGENE CLOUDY 67 58 72 S9 29.94F 510 ROSEBURG CLOUDY 73 50 44 S9 29.96F 1,300 MEDFORD PTSUNNY 67 56 67 NW7 30.03F
Data from:
http://www.wrh.noaa.gov/sew/get.php?pil=RWR&sid=OR&version=0&format=printer
http://www.wrh.noaa.gov/sew/get.php?pil=RWR&sid=WA&version=0&format=printer

Current Observations

Washington State Current Weather Observations   …  Oregon State Current Weather Observation



48 Hour Forecast

Seattle  …  Vancouver  …  Portland
————————————————————————————————————————
Bend  …  Spokane  …  Richland  …  Pendleton  …  Blue Mountains I-84  …  Yakima
————————————————————————————————————————
Goldendale, Washington Higher Elevations  …  Dallesport Airport - Goldendale  …  Bingen - White Salmon - Hood River  …  Index


Top of Page